TimeAKDT,TemperatureF,Dew PointF,Humidity,Sea Level PressureIn,VisibilityMPH,Wind Direction,Wind SpeedMPH,Gust SpeedMPH,PrecipitationIn,Events,Conditions,WindDirDegrees,DateUTC
12:53 AM,32.0,26.1,79,29.55,10.0,Calm,Calm,-,N/A,,Overcast,0,2012-10-17 08:53:00
1:53 AM,33.1,26.1,75,29.58,10.0,Calm,Calm,-,N/A,,Overcast,0,2012-10-17 09:53:00
2:53 AM,32.0,26.1,79,29.60,10.0,Calm,Calm,-,N/A,,Overcast,0,2012-10-17 10:53:00
3:53 AM,32.0,26.1,79,29.62,10.0,Calm,Calm,-,N/A,,Overcast,0,2012-10-17 11:53:00
4:53 AM,33.1,26.1,75,29.64,10.0,Calm,Calm,-,N/A,,Overcast,0,2012-10-17 12:53:00
5:53 AM,30.9,26.1,82,29.66,10.0,North,3.5,-,N/A,,Overcast,360,2012-10-17 13:53:00
6:32 AM,30.2,24.8,80,29.66,10.0,NE,5.8,-,N/A,,Scattered Clouds,40,2012-10-17 14:32:00
6:53 AM,30.0,24.1,79,29.68,10.0,NE,4.6,-,N/A,,Partly Cloudy,40,2012-10-17 14:53:00
7:05 AM,30.2,24.8,80,29.67,10.0,NNE,5.8,-,N/A,,Mostly Cloudy,30,2012-10-17 15:05:00
7:53 AM,32.0,26.1,79,29.69,10.0,NNE,4.6,-,N/A,,Overcast,30,2012-10-17 15:53:00
8:34 AM,30.2,24.8,80,29.69,10.0,NE,4.6,-,N/A,,Scattered Clouds,40,2012-10-17 16:34:00
8:53 AM,28.9,24.1,82,29.70,10.0,NNE,4.6,-,N/A,,Clear,20,2012-10-17 16:53:00
9:53 AM,28.0,23.0,81,29.72,10.0,NE,4.6,-,N/A,,Clear,40,2012-10-17 17:53:00
10:53 AM,30.0,24.1,79,29.74,10.0,NE,4.6,-,N/A,,Scattered Clouds,40,2012-10-17 18:53:00
11:02 AM,30.2,24.8,80,29.73,10.0,NE,4.6,-,N/A,,Mostly Cloudy,40,2012-10-17 19:02:00
11:53 AM,33.1,25.0,72,29.75,10.0,NE,5.8,-,N/A,,Mostly Cloudy,50,2012-10-17 19:53:00
12:53 PM,34.0,25.0,70,29.74,10.0,ENE,5.8,-,N/A,,Overcast,70,2012-10-17 20:53:00
1:53 PM,34.0,25.0,70,29.74,10.0,ENE,3.5,-,N/A,,Overcast,60,2012-10-17 21:53:00
2:53 PM,34.0,25.0,70,29.74,10.0,Calm,Calm,-,N/A,,Mostly Cloudy,0,2012-10-17 22:53:00
3:53 PM,34.0,26.1,73,29.73,10.0,East,3.5,-,N/A,,Mostly Cloudy,80,2012-10-17 23:53:00
4:53 PM,35.1,27.0,72,29.73,10.0,NE,4.6,-,N/A,,Mostly Cloudy,50,2012-10-18 00:53:00
5:53 PM,35.1,27.0,72,29.73,10.0,NE,5.8,-,N/A,,Mostly Cloudy,50,2012-10-18 01:53:00
6:09 PM,33.8,26.6,75,29.72,10.0,ENE,6.9,-,N/A,,Scattered Clouds,70,2012-10-18 02:09:00
6:53 PM,32.0,25.0,75,29.73,10.0,NNE,4.6,-,N/A,,Clear,30,2012-10-18 02:53:00
7:53 PM,30.0,24.1,79,29.73,10.0,NE,3.5,-,N/A,,Clear,40,2012-10-18 03:53:00
8:53 PM,30.0,23.0,75,29.73,10.0,NE,8.1,-,N/A,,Partly Cloudy,40,2012-10-18 04:53:00
9:06 PM,30.2,24.8,80,29.73,10.0,NE,6.9,-,N/A,,Mostly Cloudy,50,2012-10-18 05:06:00
9:45 PM,30.2,23.0,75,29.72,10.0,NE,3.5,-,N/A,,Mostly Cloudy,50,2012-10-18 05:45:00
9:53 PM,28.9,23.0,78,29.72,10.0,Calm,Calm,-,N/A,,Mostly Cloudy,0,2012-10-18 05:53:00
10:53 PM,30.0,24.1,79,29.73,10.0,Calm,Calm,-,N/A,,Overcast,0,2012-10-18 06:53:00
11:53 PM,32.0,25.0,75,29.72,10.0,Calm,Calm,-,N/A,,Overcast,0,2012-10-18 07:53:00